リニア彗星

C/2011 O1 ( LINEAR )

English version
Home page
Updated on April 29, 2014

---------------------------------------------------------------------

・ プロフィール

発見日 2011年7月31日
発見光度 17.6等
発見者 Lincoln Laboratory Near-Earth Asteroid Research project

・ 写真集

・ 軌道要素

Epoch 2012 Aug. 21.0 TT = JDT 2456160.5
T 2012 Aug. 18.47094 TT                                 MPC
q   3.8906521            (2000.0)            P               Q
z  +0.0008219      Peri.  232.38263     +0.18297547     +0.14503869
 +/-0.0000007      Node    89.81664     -0.25418382     +0.96240727
e   0.9968023      Incl.   76.49876     -0.94968972     -0.22964325
From 275 observations 2011 May 23-2014 Feb. 28, mean residual 0".4.

・ 星図

・ 光度変化

        m1 = 6.5 + 5 logΔ + 10.0 log r  [ ,0]  (              〜2012年 8月18日)
        m1 = 3.5 + 5 logΔ + 15.0 log r  [0, ]  (2012年 8月18日〜              )

---------------------------------------------------------------------

軌道要素はM.P.E.C. 2014-E18に掲載されたものです。
星図はステラナビゲータ Ver.8 (アストロアーツ) で作成したものです。
光度グラフはComet for Windowsで作成したものです。

---------------------------------------------------------------------

Copyright(C) Seiichi Yoshida (comet@aerith.net). All rights reserved.